Other Public Products
Issued by NWS Grand Forks, ND

Home | Current Version | Previous Version | Graphics & Text | Print | Product List | Glossary On
Versions: 1 2 3 4 5 6 7 8 9 10 11 12 13 14 15 16 17 18 19 20 21 22 23 24 25 26 27 28 29 30 31 32 33 34 35 36 37 38 39 40 41 42 43 44 45 46 47 48 49 50
000
FPUS83 KFGF 231510
OPUFGF
PRAIRIE TO PINES WEATHER ROUNDUP
NATIONAL WEATHER SERVICE EASTERN NORTH DAKOTA/GRAND FORKS ND
900 AM CST FRI FEB 23 2018

 **SATELLITE DATA USED TO AUGMENT SKY COVER AT AUTOMATED STATIONS**
 *****  WEATHER ACROSS EASTERN NORTH DAKOTA  *****

CITY           SKY/WX    TMP DP  RH WIND       PRES   REMARKS
GRAND FORKS    CLOUDY    14   7  73 NW9       30.17R WCI   2
GRND FORKS AFB SUNNY     13   4  66 NW9       30.17R WCI   0
GRND FORKS NWS   N/A     15   9  79 NW3       30.14
BUXTON           N/A     13  13  99 W5          N/A  WCI   6
DEVILS LAKE    FAIR      -1  -6  79 W13       30.18S WCI -19
FARGO          FAIR      17  14  88 NW8       30.18R WCI   7
WAHPETON ARPT  FAIR      14  10  85 NW8       30.18R WCI   3
$$

 *****  WEATHER ACROSS CENTRAL AND WESTERN NORTH DAKOTA  *****

CITY           SKY/WX    TMP DP  RH WIND       PRES   REMARKS
JAMESTOWN      FAIR      10   3  73 NW13      30.18R WCI  -5
BISMARCK       FAIR       6  -1  73 NW9       30.25R WCI  -8
MINOT          FAIR       5   1  83 SW9       30.19R WCI  -9
MINOT AFB      CLOUDY     2  -2  83 W5        30.19R WCI  -7
GARRISON         N/A      0  -4  83 W7        30.22R WCI -13
WILLISTON      CLOUDY    -5 -10  79 SW8       30.24S WCI -20
DICKINSON      FAIR      -3 -10  72 W10       30.16R WCI -20
HETTINGER      FAIR      -9 -15  75 W9        30.21R WCI -26
$$

 *****  OTHER OBSERVATIONS NORTHEAST NORTH DAKOTA  *****

CITY           SKY/WX    TMP DP  RH WIND       PRES   REMARKS
WALHALLA       FAIR       9   0  66 W7        30.18R WCI  -3
LANGDON        FAIR      -2  -4  92 W10       30.14R WCI -19
CAVALIER         N/A      9   1  72 W7        30.17S WCI  -3
GRAFTON        FAIR      12   5  73 NW8       30.19S WCI   1
CANDO          FAIR      -6  -9  84 W9        30.20S WCI -22
FORT TOTTEN      N/A      2  -6  68 W6        29.95S WCI  -9
ROLLA          PTSUNNY    1  -2  85 NW8       30.14S WCI -12
RUGBY          FOG       -2  -4  92 W10       30.20S VSB<1/4 WCI -19
 ***** THE ABOVE OBSERVATIONS ARE NON NWS ARE NOT QUALITY
        CONTROLLED AND MAY MIS-REPORT RAIN FOR SNOW...
$$

 *****  OTHER OBSERVATIONS SOUTHEAST NORTH DAKOTA *****

CITY           SKY/WX    TMP DP  RH WIND       PRES   REMARKS
COOPERSTOWN    FAIR      10   5  79 NW14      30.17R WCI  -5
VALLEY CITY    FAIR      10   7  85 NW13      30.18R WCI  -5
OAKES            N/A     12   9  85 NW9       30.20R WCI   0
GWINNER          N/A     14  10  85 NW12      30.19R WCI   0
SHEYENNE NWR     N/A     18  16  93 NW9       29.95S WCI   7
BUFFALO          N/A     13   9  84 S9          N/A  WCI   1
WYNDMERE       NOT AVBL
 ***** THE ABOVE OBSERVATIONS ARE NON NWS ARE NOT QUALITY
       CONTROLLED AND MAY MIS-REPORT RAIN FOR SNOW...
$$

  *****  WEATHER ACROSS NORTHERN MINNESOTA  *****

CITY           SKY/WX    TMP DP  RH WIND       PRES   REMARKS
FLAG ISLAND    FAIR      10   7  85 NW5       30.09S WCI   2
WARROAD        FAIR      14   9  79 W3        30.10S
ROSEAU         FAIR      12   9  85 W7        30.11S WCI   2
HALLOCK        FAIR       9   3  78 NW8       30.16S WCI  -4
THF RVR FALLS  FLURRIES  13   9  84 NW8       30.13S WCI   2
HALSTAD        NOT AVBL
FOSSTON        FAIR      18  12  79 W8        30.12R WCI   7
BAUDETTE       LGT SNOW  16  13  88 W5        30.07S FOG     WCI   9
WASKISH        LGT SNOW  19  16  86 W5        30.08S WCI  13
CROOKSTON      FAIR      12   7  79 N10       30.17R WCI  -1
$$
  *****  WEATHER ACROSS CENTRAL AND WEST MINNESOTA  *****

CITY           SKY/WX    TMP DP  RH WIND       PRES   REMARKS
BEMIDJI        LGT SNOW  19  17  89 NW7       30.07R WCI  10
PARK RAPIDS    CLOUDY    20  16  84 NW8       30.07R WCI  10
WADENA         MIX PCPN  19  18  93 W8        30.09R WCI   9
DETROIT LAKES  LGT SNOW  19  18  93 NW8       30.12R WCI   9
MOORHEAD       MIX PCPN  16  12  86 NW8       30.18R WCI   5
FERGUS FALLS   FAIR      12  10  92 NW9       30.15R WCI   0
ELBOW LAKE     FAIR      16  15  95 NW12      30.14R WCI   3
MORRIS MN      FAIR      19  18  93 NW10      30.15R WCI   8
STAPLES        CLOUDY    19  18  93 W8        30.08R WCI   9
WHEATON        PTSUNNY   19  16  86 W8        30.20R WCI   9
$$
  *****  WEATHER ELSEWHERE ACROSS MINNESOTA  *****

CITY           SKY/WX    TMP DP  RH WIND       PRES   REMARKS
DULUTH         LGT SNOW  25  22  88 NW5       29.98S FOG     WCI  19
INTRNTL FALLS  LGT SNOW  20  17  88 N5        30.06S VSB 1   WCI  13
ELY            LGT SNOW  21  19  93 NW3       30.00F
CLOQUET        LGT SNOW  25  19  80 NW5       30.00S WCI  19
BRAINERD       LGT SNOW  22  17  81 W5        30.06R WCI  16
HIBBING        LGT SNOW  21  18  88 NW7       30.01S VSB 1   WCI  12
ALEXANDRIA     CLOUDY    20  17  88 W12       30.12R WCI   8
SAINT CLOUD    FAIR      23  20  88 W10       30.10R WCI  12
MINNEAPOLIS    CLOUDY    26  24  92 NW13      30.11R WCI  15
$$

  *****  WEATHER ACROSS SOUTH DAKOTA  *****

CITY           SKY/WX    TMP DP  RH WIND       PRES   REMARKS
SIOUX FALLS    CLOUDY    18  16  92 NW9       30.20S FOG     WCI   7
BROOKINGS      CLOUDY    21  18  88 NW12      30.17R WCI   9
WATERTOWN      PTSUNNY   18  16  92 NW6       30.15R WCI  10
HURON          CLOUDY    11   8  88 NW10      30.25R WCI  -3
SISSETON         N/A     19  16  88 NW14      30.17R WCI   6
ABERDEEN       FAIR      11   8  88 NW6       30.23R WCI   1
MITCHELL       FAIR      12  10  92 W13       30.26R WCI  -3
PIERRE         FAIR       3   0  87 W12       30.25R WCI -13
MOBRIDGE       FAIR       5  -2  72 NW15      30.21R WCI -13
RAPID CITY     FAIR       4  -2  76 CALM      30.18R
$$

  *****  SOME WEATHER IN NEARBY STATES *****

CITY           SKY/WX    TMP DP  RH WIND       PRES   REMARKS
GLASGOW MT     HAZE     -13 -19  75 E8        30.19S VSB 3/4 WCI -30
GREAT FALLS MT FAIR       0  -8  69 SW14      30.01S WCI -19
CHEYENNE WY    FAIR      16  11  80 W5        30.00R WCI   9
SCOTTSBLUFF NE FAIR       7   2  80 N6        30.14R WCI  -3
OMAHA NE       FAIR      24  20  84 N6        30.26R FOG     WCI  17
DES MOINES IA  FAIR      31  23  72 NW12      30.24R WCI  22
DAVENPORT IA   CLOUDY    35  32  88 W14       30.20R
CHICAGO IL     DRIZZLE   43  41  93 SW12      30.09R FOG
EAU CLAIRE WI  CLOUDY    29  28  96 W10       30.06R FOG     WCI  20
LA CROSSE WI   CLOUDY    34  30  85 W12G23    30.11R
$$

  *****  SOME NATIONAL WEATHER *****

CITY           SKY/WX    TMP DP  RH WIND       PRES   REMARKS
LA GUARDIA NY  LGT RAIN  37  32  82 NE9       30.63F
RALEIGH NC     FOG       53  52  96 NE7       30.50F VSB 1
ATLANTA GA     FOG       63  63 100 S8        30.42S VSB 1/2
NEW ORLEANS LA LGT RAIN  73  72  96 E10       30.25F FOG
OKLAHOMA CITY  CLOUDY    32  32 100 NE10      30.24S FOG     WCI  24
ALBUQUERQUE NM FAIR      28  17  63 N9        30.07S WCI  19
SALT LAKE CITY LGT SNOW  29  25  85 NW13      29.93R VSB 1   WCI  19
LOS ANGELES CA FAIR      47  26  44 NW7       30.20R
BOISE ID       FAIR      10   6  84 CALM      30.25R
SEATTLE WA     MOCLDY    25  17  72 SE8       30.44F WCI  16
$$

*** WEATHER ACROSS MANITOBA...SASKATCHEWAN AND ONTARIO ***
                ***ONTARIO***

CITY           SKY/WX    TMP DP  RH WIND       PRES   REMARKS
GERALDTON      SNOW      21  19  93 NE3       30.02F VSB 3/8
THUNDER BAY    LGT SNOW  23  23 100 SW3       30.01F VSB 1
SIOUX LOOKOUT  CLOUDY    14   5  67 NW2       30.03F
TORONTO        DRIZZLE   34  32  93 E9        30.22F
BIG TROUT LK   PTSUNNY    1  -9  60 VRB2      30.09R
PICKLE LAKE    PTSUNNY    9   1  72 NW5       30.03F WCI   0
DRYDEN         CLOUDY    16   5  62 CALM      30.04S
KENORA         CLOUDY    12   7  79 N5        30.06S WCI   4
$$
                *** MANITOBA***

CITY           SKY/WX    TMP DP  RH WIND       PRES   REMARKS
BRANDON        FOG        1  -2  85 NW16      30.17R VSB 1   WCI -18
DAUPHIN        SUNNY      0  -4  85 W10       30.16F WCI -17
ISLAND LAKE    CRYSTALS -11 -15  84 CALM      30.14S
PILOT MOUND      N/A     -4  -8  84 W8          N/A  WCI -19
THE PAS        FLURRIES   5  -2  72 S8        30.05F WCI  -8
THOMPSON       MOCLDY   -20 -26  76 CALM      30.08F
WINNIPEG       PTSUNNY    0  -4  85 W12       30.16F WCI -18
LYNN LAKE      CLOUDY    -9 -17  70 SE6       29.91F WCI -23
CHURCHILL      PTCLDY   -26 -33  68 W10       30.07F WCI -48
GILLAM         MOSUNNY  -17 -26  63 W9        30.11S WCI -36
$$
                ***SASKATCHEWAN***

CITY           SKY/WX    TMP DP  RH WIND       PRES   REMARKS
ESTEVAN        CLOUDY     7   1  78 W9        30.17S WCI  -7
KINDERSLEY     FOG       -4  -9  77 S9        29.98F VSB 1   WCI -20
LLOYDMINSTER   PTCLDY     3   0  85 S15       29.85F WCI -15
PRINCE ALBERT  PTCLDY    -8 -11  84 CALM      30.06F
REGINA         PTCLDY     1  -2  85 SE8       30.12F WCI -12
YORKTON        CLEAR     -4  -8  84 S6        30.12F WC



USA.gov is the U.S. government's official web portal to all federal, state and local government web resources and services.